Terminal Aerodrome Forecast
Issued by NWS Twin Cities, MN

Home | Current Version | Previous Version | Graphics & Text | Print | Product List | Glossary On
Versions: 1 2 3 4 5 6 7 8 9 10 11 12 13 14 15 16 17 18 19 20
000
FTUS43 KMPX 161100 RRA
TAFSTC
TAF
KSTC 161146Z 1612/1712 33018G23KT 5SM -SN BR OVC012
     FM161500 33015KT P6SM OVC022
     FM170100 31009KT P6SM BKN025=

USA.gov is the U.S. government's official web portal to all federal, state and local government web resources and services.